[[{"header":{"parameterUnit":"m.s-1","parameterCategory":2,"la1":30.2991,"la2":30.254,"lo1":-89.0895,"lo2":-89.0444,"dy":0.0017,"dx":0.0017,"nx":28,"ny":28,"refTime":"2023-10-14T09:00:00:Z","depth":"0","parameterNumber":2,"parameterNumberName":"U-component_of_CURRENTS"},"data":[0,0,0,0,0,0,0,0,0,0,0,0,0,0,0,0,0,0,0,0,0,0,0,0,0,0,0,0,0,0,0,0,0,0,0,0,0,0,0,0,0,0,0,0,0,0,0,0,0,0,0,0,0,0,0,0,0,0,0.1574,0.1574,0,0.1621,0.1621,0.1622,0.162,0.1619,0.1619,0.1618,0.1691,0.1693,0.1696,0,0,0,0,0,0,0,0,0,0,0,0,0,0.1559,0.1558,0.1574,0.1574,0.1575,0.1621,0.1621,0.1622,0.162,0.1619,0.1618,0.1618,0.169,0.1693,0.1696,0,0,0,0,0,0,0,0,0,0,0,0,0,0.1581,0.1558,0.1574,0.1579,0.158,0.1621,0.1621,0.1622,0.162,0.1619,0.1618,0.1617,0.1689,0.1693,0.1697,0.1741,0,0,0.1708,0.171,0,0,0,0,0,0,0,0,0.158,0.1582,0.1578,0.1579,0.158,0.1613,0.1643,0.1663,0.162,0.1605,0.1618,0.1617,0.1668,0.1674,0.1684,0.1744,0.1747,0.1709,0.1711,0.1713,0.1714,0,0,0,0,0,0,0,0.1578,0.158,0.1592,0.1579,0.158,0.1606,0.1607,0.1647,0.1642,0.1606,0.1606,0.1612,0.1669,0.1681,0.1686,0.1748,0.1709,0.1712,0.1714,0.1716,0.1852,0.1854,0,0,0,0,0,0,0.1569,0.1578,0.1591,0.1594,0.1577,0.1606,0.1608,0.1604,0.1641,0.1646,0.1613,0.1611,0.1675,0.1682,0.1689,0.1763,0.1713,0.1716,0.1719,0.1851,0.1853,0.1854,0,0,0,0,0,0,0.1569,0.157,0.1589,0.1588,0.1592,0.1607,0.1603,0.1605,0.1623,0.1646,0.165,0.1628,0.1674,0.1683,0.1728,0.1765,0.1718,0.1722,0.1849,0.1852,0.1853,0.19,0,0,0,0,0,0,0.1568,0.1569,0.1556,0.1587,0.1592,0.1617,0.1604,0.1607,0.1628,0.1627,0.1661,0.1666,0.1674,0.1722,0.1732,0.177,0.1725,0.1848,0.185,0.1853,0.1896,0.1903,0.1908,0,0,0,0,0,0.1567,0.1566,0.1555,0.1557,0.1576,0.1617,0.1623,0.1631,0.163,0.1643,0.1663,0.1666,0.1744,0.1726,0.1737,0.1777,0.1847,0.185,0.1853,0.1894,0.1902,0.1908,0,0,0,0,0,0,0.1571,0.1567,0.1555,0.1556,0.1582,0.1617,0.1624,0.1641,0.1669,0.1664,0.1686,0.1694,0.1746,0.1755,0.1735,0.1822,0.1795,0.1801,0.1823,0.1831,0.1836,0.1798,0.1728,0,0,0,0,0,0.156,0.1547,0.1566,0.1569,0.1575,0.1601,0.1617,0.1629,0.166,0.1671,0.1702,0.1731,0.1769,0.1792,0.1821,0.1875,0.188,0.1906,0.1912,0.1917,0.1893,0.1941,0.1949,0.1864,0.1864,0.1864,0,0,0.1557,0.156,0.1548,0.1567,0.158,0.1608,0.1608,0.1637,0.1673,0.1677,0.1733,0.1756,0.1786,0.184,0.1865,0.1853,0.195,0.1921,0.1925,0.1897,0.1945,0.1953,0.196,0.1866,0.1865,0.1865,0,0,0.1569,0.1552,0.1546,0.1566,0.159,0.1615,0.1627,0.1669,0.1691,0.175,0.1759,0.1795,0.1866,0.1886,0.1908,0.1966,0.1978,0.1988,0.1994,0.2043,0.205,0.2056,0.2095,0.2104,0.1994,0.1994,0.1994,0,0.1558,0.1562,0.1559,0.1577,0.1596,0.1622,0.1648,0.1685,0.1744,0.1764,0.177,0.1855,0.1884,0.1939,0.1954,0.198,0.2003,0.1967,0.205,0.2056,0.2062,0.21,0.2109,0.1997,0.1997,0.1996,0.1996,0,0.1582,0.1577,0.1586,0.1604,0.1635,0.166,0.1708,0.1746,0.1781,0.1813,0.1872,0.1907,0.1947,0.1979,0.1986,0.2044,0.2048,0.2052,0.203,0.2073,0.2111,0.212,0.2001,0.2,0.1999,0.1998,0,0,0.1557,0.1585,0.1583,0.1586,0.1646,0.1669,0.1737,0.1791,0.1819,0.1878,0.192,0.1983,0.1983,0.2004,0.2027,0.2064,0.2138,0.2072,0.2074,0.2105,0.2246,0.2272,0.2284,0.2165,0.2167,0.2168,0.2265,0,0.1566,0.158,0.1616,0.1646,0.1651,0.1704,0.1762,0.1817,0.1868,0.1917,0.1954,0.1999,0.2004,0.2022,0.2063,0.2116,0.216,0.211,0.2201,0.2203,0.2217,0.2294,0.229,0.2378,0.2274,0.2275,0.2276,0,0.1573,0.1575,0.159,0.1632,0.1642,0.1678,0.1745,0.1804,0.1881,0.1921,0.1965,0.1997,0.2056,0.2054,0.2158,0.2131,0.2182,0.2221,0.2226,0.2229,0.2245,0.2314,0.2398,0.2304,0.229,0.2289,0.2288,0,0.1527,0.1562,0.1564,0.1578,0.1634,0.1658,0.1705,0.1786,0.1824,0.1911,0.1937,0.2017,0.2053,0.213,0.2207,0.2196,0.2319,0.2321,0.239,0.2392,0.239,0.239,0.2383,0.2391,0.239,0.239,0.239,0,0.1515,0.1514,0.1529,0.152,0.1534,0.1602,0.1635,0.1702,0.1778,0.1823,0.1913,0.1959,0.2073,0.2157,0.2225,0.2339,0.2343,0.2396,0.2425,0.241,0.241,0.2327,0.2253,0.2394,0.2393,0.2392,0.2392,0,0.1475,0.1478,0.147,0.1496,0.1503,0.151,0.1575,0.1612,0.169,0.1754,0.1781,0.1921,0.2058,0.2167,0.2309,0.2363,0.2403,0.2501,0.2471,0.2495,0.2473,0.2402,0.2301,0.2235,0.2607,0.2608,0.2609,0,0.1458,0.1447,0.1431,0.1433,0.1443,0.1459,0.1487,0.1553,0.16,0.1731,0.1764,0.191,0.203,0.225,0.2397,0.2552,0.2436,0.2615,0.2588,0.2476,0.2419,0.2263,0.2202,0.2616,0.2617,0.2618,0.2619,0,0.144,0.1427,0.143,0.1406,0.1405,0.1425,0.1466,0.147,0.1574,0.163,0.1752,0.1854,0.2092,0.228,0.2486,0.2579,0.2479,0.2638,0.2536,0.2433,0.2247,0.2197,0.2532,0.2626,0.2626,0.2625,0.2625,0.2624,0.1437,0.1423,0.1412,0.14,0.141,0.1424,0.1422,0.1492,0.1539,0.1641,0.1723,0.1875,0.2144,0.2459,0.2511,0.2621,0.2528,0.2611,0.254,0.2396,0.2299,0.2643,0.2758,0.2758,0.2758,0.2758,0.2758,0,0.1392,0.1395,0.1418,0.1385,0.1395,0.1403,0.1439,0.145,0.1498,0.1625,0.172,0.1983,0.2205,0.2397,0.2616,0.2546,0.2416,0.2464,0.2237,0.219,0.254,0.2507,0.2555,0.2555,0.2555,0.2555,0.2555,0.2555,0.1363,0.1345,0.1352,0.1352,0.1363,0.1351,0.1358,0.1406,0.149,0.1631,0.1764,0.1884,0.2175,0.2365,0.2411,0.2383,0.2137,0.2064,0.1966,0.2214,0.2221,0.2227,0.218,0.2158,0.2158,0.1584,0.1579,0.1576]},{"header":{"parameterUnit":"m.s-1","parameterCategory":2,"la1":30.2991,"la2":30.254,"lo1":-89.0895,"lo2":-89.0444,"dy":0.0017,"dx":0.0017,"nx":28,"ny":28,"refTime":"2023-10-14T09:00:00:Z","depth":"0","parameterNumber":3,"parameterNumberName":"V-component_of_CURRENTS"},"data":[0,0,0,0,0,0,0,0,0,0,0,0,0,0,0,0,0,0,0,0,0,0,0,0,0,0,0,0,0,0,0,0,0,0,0,0,0,0,0,0,0,0,0,0,0,0,0,0,0,0,0,0,0,0,0,0,0,0,-0.0818,-0.0818,0,-0.0844,-0.0844,-0.0845,-0.0874,-0.0874,-0.0874,-0.0874,-0.0969,-0.0972,-0.0974,0,0,0,0,0,0,0,0,0,0,0,0,0,-0.0922,-0.092,-0.0818,-0.0818,-0.0818,-0.0844,-0.0845,-0.0845,-0.0874,-0.0874,-0.0874,-0.0874,-0.0969,-0.0972,-0.0975,0,0,0,0,0,0,0,0,0,0,0,0,0,-0.0909,-0.0919,-0.0818,-0.0832,-0.0833,-0.0844,-0.0845,-0.0846,-0.0874,-0.0874,-0.0874,-0.0874,-0.0968,-0.0971,-0.0975,-0.0998,0,0,-0.0987,-0.0988,0,0,0,0,0,0,0,0,-0.091,-0.0906,-0.083,-0.0831,-0.0832,-0.0852,-0.0916,-0.0898,-0.0874,-0.0863,-0.0874,-0.0874,-0.0934,-0.094,-0.095,-0.1002,-0.1007,-0.0987,-0.0989,-0.0991,-0.0992,0,0,0,0,0,0,0,-0.0911,-0.0906,-0.0833,-0.083,-0.0831,-0.0881,-0.0878,-0.0914,-0.0903,-0.0864,-0.0865,-0.0861,-0.0935,-0.0947,-0.0953,-0.1008,-0.0987,-0.099,-0.0992,-0.0994,-0.1087,-0.1087,0,0,0,0,0,0,-0.0891,-0.0905,-0.0832,-0.0833,-0.0867,-0.0878,-0.0876,-0.0849,-0.0901,-0.0907,-0.0861,-0.0862,-0.094,-0.0948,-0.0956,-0.0987,-0.0991,-0.0994,-0.0997,-0.1087,-0.1087,-0.1087,0,0,0,0,0,0,-0.0893,-0.0883,-0.0831,-0.0868,-0.0864,-0.0875,-0.0846,-0.085,-0.0859,-0.0897,-0.0905,-0.0865,-0.094,-0.0951,-0.0997,-0.0991,-0.0996,-0.0999,-0.1087,-0.1087,-0.1087,-0.1048,0,0,0,0,0,0,-0.0895,-0.0883,-0.0855,-0.0866,-0.0861,-0.0832,-0.0846,-0.085,-0.0854,-0.0856,-0.0903,-0.0912,-0.0941,-0.0991,-0.1001,-0.0996,-0.1002,-0.1086,-0.1087,-0.1087,-0.1049,-0.1047,-0.1045,0,0,0,0,0,-0.0899,-0.0865,-0.0853,-0.0844,-0.0821,-0.0831,-0.0834,-0.0847,-0.0854,-0.0856,-0.0898,-0.0911,-0.1,-0.0995,-0.1006,-0.1002,-0.1086,-0.1087,-0.1087,-0.105,-0.1047,-0.1045,0,0,0,0,0,0,-0.0915,-0.0865,-0.0852,-0.0808,-0.0813,-0.0834,-0.0834,-0.0844,-0.0877,-0.0882,-0.0924,-0.0936,-0.0972,-0.0995,-0.0989,-0.103,-0.1041,-0.1044,-0.1009,-0.1007,-0.1005,-0.0979,-0.1006,0,0,0,0,0,-0.0896,-0.0854,-0.0834,-0.081,-0.0801,-0.0816,-0.082,-0.0829,-0.0858,-0.0872,-0.0908,-0.0946,-0.0982,-0.1001,-0.1038,-0.1065,-0.1068,-0.1067,-0.1065,-0.1063,-0.105,-0.1056,-0.1053,-0.1089,-0.1089,-0.1089,0,0,-0.0882,-0.0869,-0.0832,-0.081,-0.0814,-0.0813,-0.082,-0.0825,-0.0842,-0.0879,-0.092,-0.0946,-0.099,-0.1022,-0.1038,-0.104,-0.1054,-0.1064,-0.1062,-0.105,-0.1056,-0.1053,-0.1049,-0.1089,-0.1089,-0.1089,0,0,-0.0879,-0.0834,-0.0802,-0.0797,-0.0796,-0.0812,-0.0809,-0.0823,-0.0841,-0.088,-0.0907,-0.0925,-0.0993,-0.1007,-0.1028,-0.1036,-0.1047,-0.105,-0.1017,-0.1023,-0.1019,-0.1016,-0.1008,-0.1005,-0.1044,-0.1044,-0.1044,0,-0.0868,-0.0823,-0.0804,-0.0795,-0.0784,-0.0809,-0.0794,-0.0827,-0.0863,-0.0866,-0.0891,-0.0946,-0.0982,-0.0997,-0.1002,-0.1028,-0.1033,-0.1021,-0.1018,-0.1015,-0.1013,-0.1005,-0.1002,-0.1043,-0.1043,-0.1043,-0.1043,0,-0.0855,-0.0807,-0.08,-0.0783,-0.0784,-0.0774,-0.0798,-0.0814,-0.0842,-0.0863,-0.0883,-0.0928,-0.0947,-0.0963,-0.0993,-0.0986,-0.0994,-0.1017,-0.1018,-0.1006,-0.1,-0.0997,-0.104,-0.1041,-0.1041,-0.1042,0,0,-0.0823,-0.0785,-0.0776,-0.0746,-0.076,-0.0756,-0.0788,-0.0796,-0.0791,-0.0843,-0.0834,-0.0891,-0.089,-0.0911,-0.0935,-0.094,-0.0931,-0.0969,-0.097,-0.095,-0.0934,-0.0898,-0.0891,-0.0956,-0.0956,-0.0955,-0.0933,0,-0.0805,-0.0776,-0.0767,-0.073,-0.0697,-0.0712,-0.0729,-0.0749,-0.078,-0.0788,-0.0824,-0.0835,-0.0883,-0.0873,-0.0892,-0.0922,-0.0923,-0.0933,-0.0958,-0.0958,-0.0918,-0.0887,-0.0821,-0.0793,-0.0931,-0.093,-0.093,0,-0.0768,-0.0753,-0.0717,-0.0657,-0.0642,-0.0643,-0.0633,-0.0646,-0.0675,-0.0692,-0.071,-0.0747,-0.0764,-0.0807,-0.0847,-0.0854,-0.0887,-0.0912,-0.0912,-0.0887,-0.0916,-0.083,-0.0783,-0.0835,-0.0926,-0.0926,-0.0927,0,-0.0751,-0.069,-0.0664,-0.0647,-0.0621,-0.0602,-0.0589,-0.0607,-0.0594,-0.0618,-0.0607,-0.0656,-0.0661,-0.0721,-0.0788,-0.0818,-0.0825,-0.0874,-0.0866,-0.0864,-0.0815,-0.0809,-0.0808,-0.0888,-0.0888,-0.0888,-0.0888,0,-0.0721,-0.0679,-0.0641,-0.0628,-0.057,-0.0552,-0.0505,-0.051,-0.0494,-0.0467,-0.054,-0.0526,-0.0641,-0.0674,-0.075,-0.0786,-0.0796,-0.0841,-0.085,-0.0799,-0.0792,-0.0842,-0.0901,-0.0888,-0.0888,-0.0888,-0.0888,0,-0.0712,-0.0689,-0.0636,-0.0589,-0.0565,-0.0522,-0.0445,-0.0402,-0.0398,-0.0366,-0.0367,-0.0419,-0.0457,-0.0556,-0.0637,-0.071,-0.0775,-0.077,-0.0694,-0.0694,-0.0748,-0.0807,-0.081,-0.0836,-0.0762,-0.0761,-0.076,0,-0.07,-0.0683,-0.0625,-0.0589,-0.0567,-0.0491,-0.0434,-0.0376,-0.0334,-0.0296,-0.0278,-0.0296,-0.0313,-0.0405,-0.0519,-0.0616,-0.0706,-0.0628,-0.0675,-0.0718,-0.0792,-0.0833,-0.0859,-0.0596,-0.0594,-0.0592,-0.059,0,-0.0675,-0.0673,-0.0651,-0.0591,-0.0517,-0.0434,-0.0349,-0.0292,-0.0225,-0.0186,-0.014,-0.0136,-0.0207,-0.026,-0.0381,-0.0468,-0.0647,-0.0594,-0.0661,-0.0668,-0.069,-0.0729,-0.0644,-0.0574,-0.0576,-0.0577,-0.0578,-0.0578,-0.0649,-0.0636,-0.0613,-0.0555,-0.0481,-0.0387,-0.03,-0.0219,-0.0121,-0.0016,-0.0019,0.0072,-0.0005,-0.0155,-0.0301,-0.0468,-0.0535,-0.0529,-0.0597,-0.0634,-0.0653,-0.052,-0.0453,-0.0454,-0.0455,-0.0456,-0.0456,0,-0.0582,-0.0588,-0.0561,-0.0481,-0.0406,-0.0373,-0.0246,-0.0147,-0.0024,0.0113,0.0187,0.0324,0.0185,0.0021,-0.0214,-0.0411,-0.052,-0.0531,-0.0583,-0.0614,-0.0497,-0.0484,-0.0394,-0.0394,-0.0394,-0.0394,-0.0394,-0.0394,-0.0536,-0.051,-0.0521,-0.0409,-0.036,-0.0212,-0.0126,-0.0013,0.0115,0.0369,0.056,0.0679,0.0698,0.0116,-0.0279,-0.0433,-0.0599,-0.0629,-0.074,-0.0671,-0.0677,-0.0682,-0.0682,-0.0635,-0.0635,-0.08,-0.0802,-0.0803]}],[{"header":{"parameterUnit":"m.s-1","parameterCategory":2,"la1":30.2991,"la2":30.254,"lo1":-89.0895,"lo2":-89.0444,"dy":0.0017,"dx":0.0017,"nx":28,"ny":28,"refTime":"2023-10-14T09:00:00:Z","depth":"2","parameterNumber":2,"parameterNumberName":"U-component_of_CURRENTS"},"data":[0,0,0,0,0,0,0,0,0,0,0,0,0,0,0,0,0,0,0,0,0,0,0,0,0,0,0,0,0,0,0,0,0,0,0,0,0,0,0,0,0,0,0,0,0,0,0,0,0,0,0,0,0,0,0,0,0,0,0.0952,0.0952,0,0.0909,0.0908,0.0906,0.0917,0.0919,0.0921,0.0922,0.0928,0.0927,0.0925,0,0,0,0,0,0,0,0,0,0,0,0,0,0.0817,0.082,0.0952,0.0952,0.0953,0.0909,0.0908,0.0906,0.0917,0.0919,0.0921,0.0923,0.0929,0.0927,0.0925,0,0,0,0,0,0,0,0,0,0,0,0,0,0.0827,0.0821,0.0952,0.096,0.0961,0.0909,0.0908,0.0906,0.0917,0.0919,0.0922,0.0924,0.0929,0.0927,0.0925,0.086,0,0,0.0918,0.0918,0,0,0,0,0,0,0,0,0.0826,0.0831,0.0958,0.0959,0.0961,0.093,0.0863,0.0896,0.0916,0.0923,0.0922,0.0925,0.0938,0.0935,0.0907,0.086,0.0861,0.0918,0.0917,0.0916,0.0915,0,0,0,0,0,0,0,0.0826,0.0831,0.0925,0.0959,0.096,0.0889,0.0894,0.0867,0.091,0.0923,0.0926,0.0935,0.0938,0.0909,0.0907,0.0861,0.0918,0.0916,0.0915,0.0914,0.0938,0.094,0,0,0,0,0,0,0.086,0.0832,0.0927,0.0925,0.0909,0.0891,0.0896,0.0929,0.0909,0.0911,0.0933,0.0936,0.0911,0.091,0.0908,0.0998,0.0916,0.0914,0.0913,0.0936,0.0938,0.094,0,0,0,0,0,0,0.0858,0.087,0.0929,0.0883,0.0887,0.0893,0.0928,0.0927,0.0924,0.0919,0.092,0.0936,0.0913,0.0911,0.0927,0.0993,0.0913,0.0911,0.0934,0.0937,0.0939,0.1072,0,0,0,0,0,0,0.0854,0.087,0.0903,0.0887,0.0892,0.0914,0.0927,0.0925,0.0929,0.0932,0.092,0.0922,0.0915,0.093,0.0925,0.0989,0.0909,0.0931,0.0935,0.0938,0.1065,0.1079,0.1091,0,0,0,0,0,0.085,0.0894,0.0905,0.0916,0.0939,0.0915,0.0909,0.0913,0.0927,0.0919,0.0936,0.0924,0.0951,0.0929,0.0922,0.0987,0.0929,0.0934,0.0938,0.1059,0.1076,0.1091,0,0,0,0,0,0,0.0871,0.0899,0.0911,0.0969,0.095,0.0921,0.0913,0.0918,0.0915,0.0933,0.0927,0.0929,0.0961,0.0948,0.0924,0.1005,0.0945,0.0949,0.104,0.1056,0.1068,0.1031,0.0908,0,0,0,0,0,0.0888,0.0915,0.0922,0.096,0.0949,0.0928,0.0921,0.093,0.0927,0.0928,0.0934,0.0949,0.0963,0.0991,0.0975,0.1013,0.099,0.1057,0.107,0.1081,0.1046,0.1067,0.1079,0.0955,0.0955,0.0954,0,0,0.0908,0.0924,0.0944,0.0962,0.0936,0.0925,0.0927,0.0924,0.0939,0.0929,0.0953,0.0967,0.0972,0.1021,0.1039,0.1033,0.1117,0.1086,0.1096,0.1054,0.1073,0.1085,0.1095,0.0958,0.0957,0.0957,0,0,0.0926,0.0963,0.0973,0.0952,0.0942,0.0934,0.0941,0.0932,0.095,0.0975,0.0988,0.1044,0.1052,0.1093,0.111,0.1176,0.1157,0.1194,0.1264,0.1288,0.1297,0.1305,0.1348,0.1359,0.1236,0.1237,0.1237,0,0.0945,0.0973,0.0967,0.0951,0.0947,0.0942,0.094,0.0943,0.0958,0.099,0.1004,0.1061,0.1084,0.1157,0.1209,0.1207,0.1214,0.1213,0.1305,0.1312,0.1317,0.1358,0.1368,0.1244,0.1243,0.1242,0.1242,0,0.0927,0.0969,0.0958,0.0949,0.0942,0.0935,0.0945,0.0961,0.1001,0.1034,0.1104,0.1141,0.1192,0.1236,0.125,0.1331,0.1322,0.1294,0.1266,0.1338,0.1377,0.1385,0.1254,0.1251,0.1249,0.1247,0,0,0.094,0.095,0.0946,0.096,0.0947,0.094,0.0964,0.0998,0.1052,0.1091,0.1168,0.1235,0.1282,0.13,0.1347,0.1394,0.1495,0.1386,0.1384,0.1428,0.1566,0.1602,0.1614,0.1491,0.1492,0.1492,0.1597,0,0.0928,0.0916,0.093,0.0945,0.0951,0.0957,0.0987,0.1027,0.1092,0.1167,0.1229,0.1307,0.1303,0.1376,0.1417,0.1461,0.1512,0.1469,0.1485,0.1485,0.1508,0.1622,0.139,0.1466,0.1605,0.1606,0.1607,0,0.0924,0.0914,0.0921,0.0981,0.098,0.0995,0.1053,0.1082,0.1177,0.1244,0.1323,0.1371,0.1466,0.1445,0.1528,0.1505,0.1536,0.1558,0.1562,0.1535,0.1534,0.1404,0.1474,0.1619,0.1618,0.1617,0.1616,0,0.0922,0.0945,0.0956,0.0952,0.0985,0.1013,0.1035,0.1118,0.1157,0.13,0.1357,0.146,0.152,0.1553,0.1625,0.1585,0.1704,0.1655,0.1702,0.1706,0.1474,0.1456,0.1682,0.1682,0.1681,0.1681,0.1681,0,0.0922,0.0931,0.0965,0.0948,0.0977,0.1025,0.1087,0.1133,0.1233,0.1296,0.1396,0.1457,0.1543,0.1623,0.166,0.1736,0.1737,0.1719,0.1737,0.1523,0.151,0.1586,0.1574,0.1685,0.1684,0.1683,0.1683,0,0.0909,0.0924,0.0943,0.0973,0.098,0.0997,0.1045,0.112,0.1206,0.1285,0.1326,0.1463,0.1589,0.1683,0.1786,0.1788,0.186,0.1877,0.1648,0.1636,0.1829,0.1822,0.1923,0.1925,0.1927,0.1928,0.1929,0,0.0892,0.0915,0.092,0.096,0.0971,0.1001,0.1043,0.1091,0.1152,0.1273,0.1309,0.1467,0.157,0.1764,0.1804,0.1903,0.1941,0.1771,0.1641,0.1848,0.1855,0.1845,0.1836,0.1402,0.1399,0.1396,0.1394,0,0.0895,0.0912,0.0925,0.0949,0.0994,0.1008,0.1054,0.1069,0.1149,0.1215,0.1334,0.1427,0.1568,0.1583,0.1734,0.1752,0.1744,0.1725,0.1992,0.1398,0.1371,0.1374,0.1378,0.1371,0.1374,0.1375,0.1376,0.1377,0.0915,0.0927,0.0968,0.098,0.1032,0.1052,0.1043,0.1126,0.1164,0.1253,0.132,0.1374,0.1403,0.1504,0.1544,0.1562,0.1643,0.1563,0.1563,0.1568,0.151,0.149,0.1503,0.1506,0.1508,0.1511,0.1513,0,0.0932,0.0957,0.1014,0.1021,0.1058,0.1058,0.1085,0.1075,0.1124,0.1221,0.1308,0.1122,0.1199,0.1243,0.1174,0.124,0.1169,0.1256,0.1083,0.1105,0.1125,0.1038,0.0909,0.0908,0.0908,0.0907,0,0,0.0954,0.0969,0.0967,0.1011,0.1056,0.1049,0.1047,0.1059,0.1081,0.1004,0.0976,0.1195,0.1154,0.1003,0.1017,0.0936,0.1036,0.0934,0.1397,0.121,0.123,0.1264,0.1153,0,0,0,0,0]},{"header":{"parameterUnit":"m.s-1","parameterCategory":2,"la1":30.2991,"la2":30.254,"lo1":-89.0895,"lo2":-89.0444,"dy":0.0017,"dx":0.0017,"nx":28,"ny":28,"refTime":"2023-10-14T09:00:00:Z","depth":"2","parameterNumber":3,"parameterNumberName":"V-component_of_CURRENTS"},"data":[0,0,0,0,0,0,0,0,0,0,0,0,0,0,0,0,0,0,0,0,0,0,0,0,0,0,0,0,0,0,0,0,0,0,0,0,0,0,0,0,0,0,0,0,0,0,0,0,0,0,0,0,0,0,0,0,0,0,-0.002,-0.002,0,0.0133,0.0137,0.014,0.0166,0.0163,0.016,0.0157,0.0069,0.007,0.007,0,0,0,0,0,0,0,0,0,0,0,0,0,0.0184,0.0179,-0.002,-0.002,-0.002,0.0133,0.0137,0.0141,0.0166,0.0163,0.0159,0.0155,0.0069,0.007,0.007,0,0,0,0,0,0,0,0,0,0,0,0,0,0.0209,0.0177,-0.002,-0.0002,-0.0001,0.0132,0.0137,0.0142,0.0167,0.0163,0.0158,0.0154,0.0069,0.007,0.0071,0.0166,0,0,0.0073,0.0073,0,0,0,0,0,0,0,0,0.0207,0.0203,-0.0005,-0.0004,-0.0002,0.0109,0.0176,0.0131,0.0168,0.0123,0.0157,0.0152,0.0051,0.0054,0.0123,0.0162,0.0158,0.0073,0.0073,0.0074,0.0074,0,0,0,0,0,0,0,0.0205,0.02,0.006,-0.0005,-0.0003,0.016,0.0156,0.0173,0.0121,0.0127,0.0124,0.0113,0.0053,0.0122,0.0119,0.0157,0.0073,0.0073,0.0074,0.0074,0.006,0.0059,0,0,0,0,0,0,0.0127,0.0195,0.0054,0.0062,0.0073,0.0156,0.0153,0.0094,0.0126,0.0123,0.0117,0.0113,0.0123,0.0119,0.0116,0.0012,0.0074,0.0074,0.0075,0.0061,0.006,0.0059,0,0,0,0,0,0,0.013,0.0111,0.0048,0.0122,0.0122,0.0152,0.0089,0.0099,0.0132,0.0118,0.0113,0.0132,0.012,0.0115,0.0083,0.0016,0.0075,0.0075,0.0062,0.006,0.0059,-0.0058,0,0,0,0,0,0,0.0135,0.0111,0.0064,0.0113,0.0113,0.0093,0.0092,0.0104,0.0125,0.0122,0.013,0.012,0.0116,0.0082,0.0084,0.0018,0.0076,0.0063,0.0061,0.006,-0.0053,-0.0063,-0.0071,0,0,0,0,0,0.0141,0.0084,0.006,0.0044,0.0038,0.0091,0.011,0.0134,0.0129,0.015,0.0134,0.0118,0.0072,0.0083,0.0085,0.0017,0.0063,0.0062,0.006,-0.0049,-0.0061,-0.0071,0,0,0,0,0,0,0.0069,0.0081,0.0056,-0.0024,0.001,0.0087,0.0112,0.013,0.0156,0.0131,0.0127,0.0118,0.0075,0.0077,0.0089,0.0012,0.0059,0.0057,-0.0024,-0.0036,-0.0045,0.0035,0.0076,0,0,0,0,0,0.0043,0.0058,0.0048,-0.0006,0.0005,0.0063,0.0092,0.0098,0.0117,0.0128,0.0128,0.011,0.0088,0.0044,0.006,0.0017,0.0061,-0.0028,-0.0037,-0.0045,0.0023,0.0037,0.0035,0.0053,0.0053,0.0053,0,0,0.0025,0.0008,0.0025,-0.0006,0.0034,0.0084,0.0074,0.0097,0.0133,0.0108,0.0148,0.0104,0.0084,0.0037,0.0012,0.0006,-0.0044,-0.0048,-0.0055,0.002,0.0035,0.0033,0.0032,0.0051,0.0052,0.0052,0,0,0.0004,-0.0047,-0.0025,0.002,0.0033,0.0079,0.0072,0.0124,0.0133,0.0151,0.0124,0.004,0.0048,-0.001,-0.0035,-0.0077,-0.0061,-0.0104,-0.0131,-0.0123,-0.0124,-0.0123,-0.0144,-0.0144,-0.0151,-0.0151,-0.0152,0,-0.0031,-0.0047,-0.0011,0.0016,0.0062,0.0073,0.0115,0.0154,0.0183,0.0165,0.0138,0.011,0.0037,-0.0025,-0.0083,-0.0102,-0.0083,-0.0105,-0.0135,-0.0133,-0.0131,-0.0151,-0.0149,-0.0157,-0.0157,-0.0156,-0.0155,0,0.0024,-0.0016,0.0001,0.0062,0.0122,0.0153,0.0197,0.0219,0.021,0.0206,0.0158,0.0089,0.0042,-0.003,-0.0085,-0.0138,-0.0129,-0.0122,-0.011,-0.014,-0.016,-0.0157,-0.0166,-0.0164,-0.0162,-0.016,0,0,0.0011,0.0035,0.0051,0.0053,0.0145,0.0194,0.0252,0.0277,0.0257,0.0256,0.023,0.0129,0.0047,0.0019,-0.008,-0.0114,-0.0184,-0.0137,-0.0134,-0.0159,-0.0174,-0.0175,-0.0171,-0.0185,-0.0183,-0.0182,-0.0222,0,0.0032,0.0066,0.0116,0.0178,0.0183,0.0254,0.0298,0.032,0.03,0.0269,0.0187,0.0126,0.0078,-0.002,-0.005,-0.0136,-0.0164,-0.0172,-0.0131,-0.0129,-0.0129,-0.0162,-0.0116,-0.0144,-0.0218,-0.0217,-0.0217,0,0.0075,0.0082,0.0126,0.0147,0.017,0.022,0.0285,0.0328,0.0286,0.0251,0.0204,0.0145,0.0058,0.0031,-0.0029,-0.003,-0.0091,-0.0129,-0.0132,-0.0058,-0.012,-0.0108,-0.0133,-0.021,-0.021,-0.0211,-0.0211,0,0.0047,0.0089,0.0114,0.0154,0.0198,0.0215,0.0264,0.0268,0.0299,0.0226,0.021,0.0139,0.0078,0.0065,-0.0053,-0.0046,-0.0089,-0.0101,-0.0124,-0.0128,-0.0031,-0.0027,-0.008,-0.008,-0.0079,-0.0079,-0.0079,0,0.0047,0.0067,0.0073,0.0088,0.0118,0.0165,0.019,0.0205,0.0212,0.0224,0.0173,0.0184,0.0094,0.0045,-0.0025,-0.0071,-0.0068,-0.009,-0.0118,-0.0081,-0.0081,-0.0066,-0.0064,-0.0081,-0.0081,-0.008,-0.008,0,0.0016,0.0029,0.0017,0.0041,0.0071,0.0093,0.0214,0.0206,0.0219,0.0249,0.0239,0.0208,0.0162,0.0079,-0.0011,-0.0053,-0.0103,-0.0121,-0.0091,-0.0113,-0.0151,-0.0155,-0.0115,-0.0115,-0.0115,-0.0115,-0.0115,0,0.0023,-0.002,-0.0005,-0.0004,0.0003,0.0067,0.0098,0.0188,0.0225,0.029,0.03,0.0259,0.0268,0.015,0.0041,-0.0048,-0.0086,-0.0087,-0.0043,-0.0112,-0.0145,-0.0149,-0.0153,-0.0004,-0.0003,-0.0002,-0.0001,0,-0.0012,-0.005,-0.0047,-0.0051,-0.0029,0.0071,0.0135,0.0194,0.0291,0.0333,0.038,0.0399,0.0323,0.0261,0.0116,0.0061,-0.0067,-0.0071,-0.0142,0.0002,-0.0009,-0.0041,-0.0048,0.0006,0.0005,0.0005,0.0004,0.0004,-0.0026,-0.0059,-0.0099,-0.0068,-0.0037,0.0044,0.0146,0.0214,0.0331,0.0461,0.0472,0.0577,0.0473,0.0392,0.0201,0.0002,0.0037,-0.0013,-0.0014,-0.0017,0.0008,-0.0001,0.0016,0.0016,0.0015,0.0015,0.0014,0,-0.0047,-0.0084,-0.0097,-0.006,-0.0013,0.0027,0.0165,0.03,0.0425,0.0556,0.066,0.0716,0.0631,0.049,0.0225,0.0058,0.0037,-0.0007,0.0007,0.0004,0.0,0.0025,0.0038,0.0037,0.0036,0.0035,0,0,-0.0065,-0.0069,-0.0074,-0.0002,0.0006,0.0142,0.0235,0.0401,0.0574,0.0806,0.0927,0.1017,0.0824,0.0639,0.0385,0.0204,0.0141,0.0173,0.0184,0.0229,0.0227,0.0039,0.0079,0,0,0,0,0]}],[{"header":{"parameterUnit":"m.s-1","parameterCategory":2,"la1":30.2991,"la2":30.254,"lo1":-89.0895,"lo2":-89.0444,"dy":0.0017,"dx":0.0017,"nx":28,"ny":28,"refTime":"2023-10-14T09:00:00:Z","depth":"4","parameterNumber":2,"parameterNumberName":"U-component_of_CURRENTS"},"data":[0,0,0,0,0,0,0,0,0,0,0,0,0,0,0,0,0,0,0,0,0,0,0,0,0,0,0,0,0,0,0,0,0,0,0,0,0,0,0,0,0,0,0,0,0,0,0,0,0,0,0,0,0,0,0,0,0,0,-0.0399,-0.04,0,-0.0448,-0.0448,-0.0448,-0.0461,-0.0461,-0.0462,-0.0462,-0.0573,-0.0575,-0.0578,0,0,0,0,0,0,0,0,0,0,0,0,0,-0.0344,-0.0344,-0.0399,-0.04,-0.0401,-0.0448,-0.0448,-0.0448,-0.0461,-0.0461,-0.0462,-0.0462,-0.0572,-0.0575,-0.0578,0,0,0,0,0,0,0,0,0,0,0,0,0,-0.0372,-0.0344,-0.0399,-0.0417,-0.042,-0.0448,-0.0448,-0.0448,-0.0461,-0.0461,-0.0462,-0.0462,-0.0571,-0.0575,-0.0579,-0.0599,0,0,-0.0591,-0.0593,0,0,0,0,0,0,0,0,-0.0371,-0.0374,-0.0413,-0.0416,-0.0419,-0.0453,-0.047,-0.0504,-0.0461,-0.044,-0.0462,-0.0462,-0.0542,-0.0548,-0.0548,-0.0604,-0.0609,-0.0592,-0.0594,-0.0596,-0.0597,0,0,0,0,0,0,0,-0.0369,-0.0372,-0.0413,-0.0415,-0.0418,-0.0433,-0.0436,-0.0475,-0.0485,-0.0442,-0.0444,-0.0458,-0.0543,-0.0544,-0.0551,-0.061,-0.0592,-0.0595,-0.0598,-0.06,-0.0799,-0.0802,0,0,0,0,0,0,-0.0372,-0.037,-0.0411,-0.0415,-0.0401,-0.0434,-0.0437,-0.0438,-0.0484,-0.0492,-0.0458,-0.0458,-0.0537,-0.0546,-0.0556,-0.0612,-0.0596,-0.06,-0.0602,-0.0797,-0.08,-0.0803,0,0,0,0,0,0,-0.037,-0.0374,-0.041,-0.0399,-0.0405,-0.0435,-0.0435,-0.0439,-0.0451,-0.0496,-0.0505,-0.0469,-0.0538,-0.055,-0.0628,-0.0616,-0.0602,-0.0606,-0.0793,-0.0798,-0.0802,-0.0707,0,0,0,0,0,0,-0.0368,-0.0373,-0.0382,-0.0398,-0.0406,-0.0436,-0.0435,-0.044,-0.0462,-0.0463,-0.0509,-0.0518,-0.0539,-0.0622,-0.0632,-0.0621,-0.0609,-0.079,-0.0795,-0.08,-0.0706,-0.0707,-0.0708,0,0,0,0,0,-0.0365,-0.0373,-0.0382,-0.0388,-0.0414,-0.0437,-0.0442,-0.046,-0.0462,-0.0471,-0.0523,-0.0517,-0.0662,-0.0627,-0.0639,-0.0628,-0.0787,-0.0794,-0.08,-0.0706,-0.0707,-0.0708,0,0,0,0,0,0,-0.0358,-0.0376,-0.0386,-0.04,-0.0424,-0.0441,-0.0459,-0.0466,-0.0508,-0.0513,-0.0551,-0.0565,-0.0627,-0.0667,-0.0627,-0.0714,-0.0725,-0.0734,-0.065,-0.0652,-0.0652,-0.0611,-0.0612,0,0,0,0,0,-0.0361,-0.0365,-0.0393,-0.0405,-0.042,-0.0439,-0.0454,-0.0461,-0.0498,-0.0514,-0.0542,-0.0599,-0.066,-0.0687,-0.0742,-0.0786,-0.0804,-0.0797,-0.0798,-0.0797,-0.078,-0.0834,-0.0835,-0.0824,-0.0824,-0.0824,0,0,-0.037,-0.0374,-0.0383,-0.0404,-0.0422,-0.0437,-0.0448,-0.0467,-0.0479,-0.0523,-0.0553,-0.06,-0.068,-0.0728,-0.0759,-0.0756,-0.081,-0.0805,-0.0803,-0.0787,-0.084,-0.0841,-0.0841,-0.0828,-0.0827,-0.0827,0,0,-0.037,-0.0386,-0.039,-0.0404,-0.0428,-0.0441,-0.0449,-0.0467,-0.0482,-0.0506,-0.0564,-0.0622,-0.0671,-0.074,-0.078,-0.0833,-0.0817,-0.0843,-0.0795,-0.0847,-0.0847,-0.0846,-0.0841,-0.0842,-0.0835,-0.0835,-0.0835,0,-0.0375,-0.037,-0.0399,-0.04,-0.0405,-0.0443,-0.0442,-0.0473,-0.0509,-0.0532,-0.0506,-0.0623,-0.0676,-0.078,-0.0777,-0.0826,-0.0825,-0.0767,-0.084,-0.084,-0.0841,-0.0837,-0.0838,-0.0831,-0.0832,-0.0832,-0.0832,0,-0.0373,-0.0371,-0.0375,-0.0382,-0.0402,-0.0402,-0.0445,-0.047,-0.0467,-0.0488,-0.0554,-0.0619,-0.0675,-0.0712,-0.0736,-0.0796,-0.078,-0.0829,-0.0811,-0.0835,-0.0831,-0.0834,-0.0826,-0.0827,-0.0828,-0.0829,0,0,-0.0349,-0.0366,-0.0356,-0.0354,-0.0377,-0.0388,-0.0429,-0.0471,-0.0501,-0.0516,-0.054,-0.0624,-0.0627,-0.0678,-0.0738,-0.0777,-0.0763,-0.077,-0.0774,-0.0718,-0.0813,-0.0635,-0.0621,-0.0799,-0.08,-0.0801,-0.0793,0,-0.0322,-0.0298,-0.0318,-0.031,-0.0311,-0.0355,-0.0386,-0.0438,-0.0469,-0.0509,-0.0585,-0.062,-0.0631,-0.0626,-0.067,-0.0762,-0.0769,-0.0757,-0.0841,-0.0842,-0.0643,-0.0619,-0.0803,-0.0795,-0.0796,-0.0796,-0.0797,0,-0.0293,-0.0276,-0.0246,-0.0263,-0.0268,-0.0267,-0.0315,-0.0345,-0.0446,-0.0461,-0.051,-0.0558,-0.0625,-0.0614,-0.0721,-0.0696,-0.0716,-0.0775,-0.0778,-0.0642,-0.0669,-0.0785,-0.0802,-0.0801,-0.0801,-0.0801,-0.08,0,-0.0236,-0.0224,-0.0186,-0.0185,-0.0219,-0.0214,-0.0226,-0.0313,-0.036,-0.0413,-0.0432,-0.0522,-0.0542,-0.0607,-0.067,-0.0678,-0.0774,-0.0825,-0.0692,-0.068,-0.0883,-0.0884,-0.0871,-0.0871,-0.0871,-0.0871,-0.0871,0,-0.0187,-0.0166,-0.0144,-0.0127,-0.0118,-0.0134,-0.0153,-0.0198,-0.0262,-0.0315,-0.0371,-0.0415,-0.053,-0.0601,-0.0655,-0.0646,-0.0753,-0.0649,-0.0661,-0.0844,-0.0842,-0.0882,-0.0883,-0.0871,-0.0871,-0.0871,-0.0871,0,-0.0154,-0.0133,-0.0108,-0.0092,-0.0095,-0.0075,-0.0115,-0.0148,-0.0175,-0.024,-0.0236,-0.0335,-0.0355,-0.0471,-0.0584,-0.0597,-0.0645,-0.0619,-0.0754,-0.0781,-0.0516,-0.0514,-0.0452,-0.0446,-0.044,-0.0436,-0.0432,0,-0.0133,-0.0105,-0.008,-0.008,-0.0068,-0.0052,-0.0076,-0.0105,-0.0142,-0.0193,-0.0225,-0.0237,-0.0288,-0.0325,-0.0416,-0.0462,-0.0475,-0.0493,-0.0525,-0.0452,-0.0471,-0.0478,-0.0483,-0.0423,-0.0422,-0.042,-0.0419,0,-0.0111,-0.0092,-0.0078,-0.0065,-0.0062,-0.0086,-0.0089,-0.0109,-0.0134,-0.0174,-0.0176,-0.0172,-0.0182,-0.0229,-0.0238,-0.0302,-0.0485,-0.0436,-0.0449,-0.048,-0.0416,-0.0442,-0.0454,-0.04,-0.0403,-0.0404,-0.0405,0,-0.0095,-0.0094,-0.0069,-0.007,-0.0076,-0.0092,-0.0102,-0.0104,-0.0124,-0.0153,-0.0143,-0.0153,-0.0177,-0.0141,-0.018,-0.017,-0.0171,-0.0215,-0.024,-0.0262,-0.0197,-0.0088,0.0051,0,0,0,0,0,-0.0075,-0.0098,-0.0094,-0.0095,-0.0093,-0.0105,-0.0121,-0.0127,-0.0141,-0.0123,-0.0121,-0.0106,-0.0063,-0.0079,-0.0027,-0.008,-0.0185,-0.0019,-0.0253,-0.0294,-0.0316,-0.0254,0,0,0,0,0,0,-0.0089,-0.008,-0.0097,-0.0105,-0.0112,-0.0125,-0.0131,-0.014,-0.0124,-0.0124,-0.0108,-0.0084,-0.0062,-0.0089,-0.0027,-0.0022,-0.016,-0.0008,-0.0006,-0.0282,-0.0302,-0.032,-0.0264,0,0,0,0,0]},{"header":{"parameterUnit":"m.s-1","parameterCategory":2,"la1":30.2991,"la2":30.254,"lo1":-89.0895,"lo2":-89.0444,"dy":0.0017,"dx":0.0017,"nx":28,"ny":28,"refTime":"2023-10-14T09:00:00:Z","depth":"4","parameterNumber":3,"parameterNumberName":"V-component_of_CURRENTS"},"data":[0,0,0,0,0,0,0,0,0,0,0,0,0,0,0,0,0,0,0,0,0,0,0,0,0,0,0,0,0,0,0,0,0,0,0,0,0,0,0,0,0,0,0,0,0,0,0,0,0,0,0,0,0,0,0,0,0,0,0.0282,0.0282,0,0.0263,0.0262,0.0262,0.035,0.0353,0.0356,0.0359,0.0464,0.0464,0.0464,0,0,0,0,0,0,0,0,0,0,0,0,0,0.0269,0.0269,0.0282,0.0282,0.0282,0.0263,0.0262,0.0262,0.0349,0.0353,0.0357,0.036,0.0464,0.0464,0.0464,0,0,0,0,0,0,0,0,0,0,0,0,0,0.026,0.0269,0.0282,0.0327,0.0332,0.0263,0.0262,0.0261,0.0348,0.0353,0.0357,0.0362,0.0464,0.0464,0.0464,0.0374,0,0,0.0464,0.0464,0,0,0,0,0,0,0,0,0.026,0.026,0.032,0.0324,0.0329,0.0318,0.0297,0.0307,0.0347,0.0337,0.0359,0.0364,0.0426,0.043,0.0407,0.0379,0.0383,0.0464,0.0464,0.0464,0.0464,0,0,0,0,0,0,0,0.0261,0.026,0.0269,0.032,0.0325,0.0306,0.031,0.0297,0.0355,0.0338,0.0346,0.035,0.043,0.0407,0.0411,0.0385,0.0464,0.0464,0.0464,0.0464,0.0468,0.0468,0,0,0,0,0,0,0.0275,0.0261,0.027,0.0269,0.0311,0.0304,0.0308,0.0313,0.0353,0.0363,0.0346,0.0354,0.0405,0.0411,0.0415,0.044,0.0464,0.0464,0.0464,0.0468,0.0468,0.0468,0,0,0,0,0,0,0.0274,0.0275,0.0271,0.0269,0.0268,0.0301,0.0304,0.031,0.0356,0.0358,0.0372,0.0395,0.0409,0.0415,0.0458,0.0441,0.0464,0.0464,0.0468,0.0468,0.0468,0.0408,0,0,0,0,0,0,0.0274,0.0275,0.0293,0.027,0.0269,0.0263,0.03,0.0306,0.035,0.0362,0.0403,0.0413,0.0413,0.0458,0.0458,0.0442,0.0464,0.0468,0.0468,0.0468,0.041,0.0406,0.0403,0,0,0,0,0,0.0273,0.0272,0.0294,0.0296,0.0289,0.0263,0.026,0.0294,0.0349,0.0356,0.04,0.0416,0.046,0.0458,0.0458,0.0441,0.0468,0.0468,0.0468,0.0411,0.0407,0.0403,0,0,0,0,0,0,0.0271,0.028,0.0304,0.0308,0.0305,0.0281,0.031,0.032,0.0352,0.0405,0.0411,0.0422,0.0449,0.0461,0.0458,0.0447,0.0467,0.0467,0.0424,0.042,0.0416,0.0394,0.0464,0,0,0,0,0,0.0278,0.0301,0.0286,0.0302,0.0317,0.0323,0.0328,0.0348,0.0366,0.0389,0.0407,0.0437,0.043,0.0447,0.0449,0.0439,0.0439,0.0434,0.043,0.0427,0.0411,0.0392,0.0384,0.0469,0.0469,0.0469,0,0,0.0303,0.0297,0.0325,0.0307,0.0331,0.0322,0.0341,0.0374,0.0355,0.0392,0.0414,0.043,0.0429,0.0417,0.043,0.0438,0.0406,0.0427,0.0424,0.041,0.0391,0.0382,0.0374,0.0469,0.0469,0.0469,0,0,0.0345,0.0352,0.0394,0.0376,0.0398,0.0369,0.0392,0.0393,0.04,0.0396,0.0419,0.0429,0.0434,0.0405,0.0393,0.0373,0.039,0.0395,0.0352,0.0333,0.0324,0.0317,0.0316,0.0309,0.0391,0.0391,0.0391,0,0.0371,0.0397,0.0398,0.0403,0.0386,0.0399,0.0402,0.0379,0.0385,0.0364,0.0419,0.0393,0.0408,0.0345,0.0344,0.0358,0.0369,0.0361,0.0324,0.0317,0.0311,0.0311,0.0304,0.0388,0.0388,0.0388,0.0389,0,0.0421,0.0443,0.0465,0.0467,0.0434,0.0444,0.0397,0.0381,0.0392,0.0358,0.0335,0.0338,0.0322,0.032,0.0325,0.0275,0.0306,0.0321,0.0326,0.0298,0.0301,0.0295,0.0384,0.0385,0.0386,0.0386,0,0,0.0477,0.0499,0.0513,0.0508,0.0462,0.0433,0.0384,0.0311,0.0276,0.028,0.0226,0.0206,0.0229,0.0218,0.0225,0.0202,0.0172,0.0249,0.0249,0.0232,0.0152,0.0137,0.0129,0.0191,0.0189,0.0188,0.0175,0,0.0526,0.0549,0.0519,0.051,0.0513,0.0437,0.0363,0.0292,0.0246,0.0192,0.0171,0.016,0.0181,0.0201,0.0167,0.0174,0.0153,0.0175,0.0196,0.0196,0.0172,0.012,0.0183,0.0171,0.017,0.0169,0.0168,0,0.0578,0.0575,0.0607,0.051,0.0502,0.0497,0.0358,0.0289,0.0183,0.0149,0.0113,0.0107,0.0068,0.0118,0.0078,0.0102,0.0123,0.0127,0.0127,0.0124,0.0168,0.0206,0.0157,0.0158,0.0159,0.0159,0.016,0,0.0612,0.0605,0.0631,0.061,0.0527,0.0522,0.0464,0.0337,0.0252,0.0176,0.0134,0.0072,0.0084,0.0067,0.0076,0.0092,0.0043,0.0065,0.006,0.0061,0.0107,0.0115,0.0036,0.0036,0.0036,0.0036,0.0036,0,0.0615,0.0625,0.0695,0.0704,0.0689,0.0609,0.0563,0.0463,0.0349,0.0239,0.0179,0.0084,0.008,0.004,0.0049,0.0028,0.0027,0.003,0.0041,0.0087,0.0092,0.0103,0.0111,0.0036,0.0036,0.0036,0.0036,0,0.0616,0.0678,0.0705,0.0717,0.0737,0.0736,0.0658,0.0574,0.0481,0.0343,0.0331,0.0137,0.0065,0.0047,0.0016,0.0008,-0.0011,-0.0007,0.0043,0.0062,0.0027,0.0033,-0.0038,-0.0039,-0.004,-0.004,-0.0041,0,0.0593,0.065,0.0755,0.0814,0.086,0.0868,0.0832,0.0694,0.056,0.0338,0.0232,0.0148,0.0037,-0.0008,-0.0057,-0.0048,-0.0036,-0.0031,-0.0022,-0.0007,0.0012,0.0019,0.0025,-0.0042,-0.0042,-0.0043,-0.0043,0,0.0546,0.0662,0.0693,0.0839,0.0903,0.0863,0.0806,0.072,0.0495,0.042,0.0202,0.0133,0.0026,-0.004,-0.0009,-0.0023,-0.0039,-0.004,-0.0038,-0.0029,-0.0013,0.0008,0.0016,-0.0046,-0.0045,-0.0045,-0.0045,0,0.0539,0.0575,0.0714,0.081,0.0897,0.0869,0.0812,0.0664,0.0535,0.0285,0.0211,0.01,0.0024,-0.0035,-0.0053,-0.0028,-0.0033,-0.0006,-0.0006,-0.0003,0.0003,0.0028,-0.0005,0,0,0,0,0,0.0526,0.0585,0.0659,0.0771,0.085,0.0889,0.0766,0.0661,0.0474,0.0354,0.0291,0.0192,0.0117,0.0006,0.0039,-0.009,-0.0042,-0.0061,-0.001,-0.0062,-0.0059,-0.0061,0,0,0,0,0,0,0.0535,0.0614,0.064,0.0741,0.0817,0.0827,0.0771,0.0624,0.0505,0.0365,0.0321,0.0248,0.0166,0.0182,0.0079,0.0056,0.0092,-0.0118,-0.0118,-0.0064,-0.0061,-0.0058,-0.0059,0,0,0,0,0]}]]